This is the latest recevied weather packets stored in our database for station/object N9XRG. If no packets are shown the sender has not sent any weather packets the latest 10 day(s).
| Time | Temp. | Humidity | Pressure | Rain* | Wind** | Luminosity | Snow |
|---|---|---|---|---|---|---|---|
| 1778103918 | 13.89° C | 44% | 1013.2 hPa | 0 mm | - | 246 W/m² | - |
| 1778103615 | 13.89° C | 43% | 1012.6 hPa | 0 mm | - | 260 W/m² | - |
| 1778103313 | 13.89° C | 41% | 1012.7 hPa | 0 mm | - | 227 W/m² | - |
| 1778103010 | 13.89° C | 42% | 1012.9 hPa | 0 mm | - | 211 W/m² | - |
| 1778102706 | 13.89° C | 43% | 1013.1 hPa | 0 mm | - | 252 W/m² | - |
| 1778102401 | 14.44° C | 42% | 1012.9 hPa | 0 mm | - | 296 W/m² | - |
| 1778102097 | 14.44° C | 40% | 1013.1 hPa | 0 mm | - | 270 W/m² | - |
| 1778101795 | 15° C | 41% | 1013.1 hPa | 0 mm | - | 288 W/m² | - |
| 1778101491 | 14.44° C | 41% | 1012.9 hPa | 0 mm | - | 584 W/m² | - |
| 1778101188 | 14.44° C | 41% | 1012.8 hPa | 0 mm | - | 252 W/m² | - |
| 1778100884 | 15° C | 40% | 1012.9 hPa | 0 mm | - | 282 W/m² | - |
| 1778100580 | 15° C | 38% | 1013.1 hPa | 0 mm | - | 281 W/m² | - |
| 1778100278 | 15° C | 41% | 1013.2 hPa | 0 mm | - | 740 W/m² | - |
| 1778099975 | 15° C | 41% | 1013.2 hPa | 0 mm | - | 272 W/m² | - |
| 1778099673 | 15° C | 40% | 1013.2 hPa | 0 mm | - | 414 W/m² | - |
| 1778099369 | 15° C | 46% | 1013.2 hPa | 0 mm | - | 700 W/m² | - |
| 1778099067 | 15.56° C | 38% | 1013.1 hPa | 0 mm | - | 380 W/m² | - |
| 1778098763 | 15° C | 38% | 1012.9 hPa | 0 mm | - | 732 W/m² | - |
| 1778098461 | 15° C | 42% | 1013.2 hPa | 0 mm | - | 848 W/m² | - |
| 1778098157 | 15° C | 43% | 1013.2 hPa | 0 mm | - | 459 W/m² | - |
| 1778097853 | 15° C | 43% | 1013.1 hPa | 0 mm | - | 339 W/m² | - |
| 1778097550 | 15° C | 42% | 1013.3 hPa | 0 mm | - | 461 W/m² | - |
| 1778097247 | 15° C | 40% | 1013.2 hPa | 0 mm | - | 445 W/m² | - |
| 1778096944 | 14.44° C | 44% | 1013.3 hPa | 0 mm | - | 768 W/m² | - |
| 1778096641 | 14.44° C | 42% | 1013.4 hPa | 0 mm | - | 390 W/m² | - |
* Rain latest hour (hover to see other rain measurements)
** Current wind speed in m/s (hover to see current wind gust speed)